When you browse on this site, cookies collect data to enhance your experience and personalize the content and advertising you see.
Visit our Privacy Policy to learn more. By continuing to use the site, you agree to this use of cookies and data.
  • In Romania
  • List of Countries
  • For 7 days
  • Water Temperature
  • Satellite Maps
  • Weather Map
  • Weather Widgets
  • user-avatar
    Login

    Hourly Weather Fargo

    Today, 21 May, Tuesday

    Time Temperature Precipitation Wind Pressure Humidity
    00:00 +10°C° 0 mm 3 mps 740 mmHg 68%
    01:00 +9°C° 0 mm 3 mps 739 mmHg 70%
    02:00 +9°C° 0 mm 2 mps 739 mmHg 72%
    03:00 +8°C° 0 mm 2 mps 739 mmHg 75%
    04:00 +9°C° 0 mm 3 mps 739 mmHg 74%
    05:00 +9°C° 0 mm 3 mps 739 mmHg 72%
    06:00 +9°C° 0 mm 3 mps 739 mmHg 71%
    07:00 +11°C° 0 mm 4 mps 739 mmHg 64%
    08:00 +13°C° 0 mm 5 mps 739 mmHg 57%
    09:00 +14°C° 0 mm 6 mps 739 mmHg 50%
    10:00 +15°C° 0 mm 7 mps 738 mmHg 48%
    11:00 +16°C° 0 mm 7 mps 738 mmHg 46%
    12:00 +17°C° 0 mm 8 mps 738 mmHg 44%
    13:00 +17°C° 0 mm 8 mps 737 mmHg 44%
    14:00 +17°C° 0 mm 8 mps 736 mmHg 43%
    15:00 +18°C° 0 mm 8 mps 735 mmHg 43%
    16:00 +17°C° 0 mm 8 mps 734 mmHg 47%
    17:00 +16°C° 0 mm 7 mps 734 mmHg 51%
    18:00 +16°C° 0 mm 6 mps 734 mmHg 55%
    19:00 +15°C° 0 mm 7 mps 733 mmHg 58%
    20:00 +14°C° 0 mm 7 mps 733 mmHg 61%
    21:00 +12°C° 0 mm 7 mps 732 mmHg 64%
    22:00 +11°C° 1.4 mm 7 mps 732 mmHg 70%
    23:00 +10°C° 1.4 mm 8 mps 732 mmHg 77%

    Tomorrow, 22 May, Wednesday

    Time Temperature Precipitation Wind Pressure Humidity
    00:00 +7°C° 1.4 mm 8 mps 731 mmHg 83%
    01:00 +7°C° 2.3 mm 8 mps 731 mmHg 85%
    02:00 +7°C° 2.3 mm 8 mps 730 mmHg 86%
    03:00 +7°C° 2.3 mm 8 mps 730 mmHg 87%
    04:00 +8°C° 0.9 mm 7 mps 730 mmHg 87%
    05:00 +8°C° 0.9 mm 7 mps 729 mmHg 88%
    06:00 +8°C° 0.9 mm 7 mps 729 mmHg 88%
    07:00 +9°C° 0.1 mm 7 mps 729 mmHg 86%
    08:00 +9°C° 0.1 mm 7 mps 728 mmHg 85%
    09:00 +10°C° 0.1 mm 8 mps 728 mmHg 84%
    10:00 +10°C° 0.5 mm 8 mps 728 mmHg 84%
    11:00 +10°C° 0.5 mm 8 mps 728 mmHg 85%
    12:00 +10°C° 0.5 mm 8 mps 728 mmHg 85%
    13:00 +11°C° 0.2 mm 7 mps 728 mmHg 85%
    14:00 +11°C° 0.2 mm 7 mps 728 mmHg 84%
    15:00 +11°C° 0.2 mm 7 mps 728 mmHg 83%
    16:00 +11°C° 0.5 mm 6 mps 728 mmHg 85%
    17:00 +12°C° 0.5 mm 5 mps 728 mmHg 87%
    18:00 +12°C° 0.5 mm 4 mps 729 mmHg 89%
    19:00 +11°C° 0.5 mm 4 mps 729 mmHg 90%
    20:00 +11°C° 0.5 mm 4 mps 730 mmHg 92%
    21:00 +11°C° 0.5 mm 4 mps 730 mmHg 94%
    22:00 +11°C° 0.1 mm 4 mps 731 mmHg 94%
    23:00 +11°C° 0.1 mm 4 mps 732 mmHg 94%

    Day after tomorrow, 23 May, Thursday

    Time Temperature Precipitation Wind Pressure Humidity
    00:00 +11°C° 0.1 mm 4 mps 732 mmHg 94%
    01:00 +10°C° 0 mm 4 mps 733 mmHg 94%
    02:00 +10°C° 0 mm 4 mps 733 mmHg 94%
    03:00 +8°C° 0 mm 4 mps 734 mmHg 94%
    04:00 +8°C° 0 mm 4 mps 735 mmHg 93%
    05:00 +9°C° 0 mm 3 mps 736 mmHg 93%
    06:00 +8°C° 0 mm 3 mps 736 mmHg 92%
    07:00 +10°C° 0 mm 3 mps 737 mmHg 87%
    08:00 +12°C° 0 mm 3 mps 738 mmHg 81%
    09:00 +13°C° 0 mm 3 mps 738 mmHg 75%
    10:00 +16°C° 0 mm 3 mps 739 mmHg 70%
    11:00 +17°C° 0 mm 2 mps 739 mmHg 66%
    12:00 +18°C° 0 mm 2 mps 739 mmHg 61%
    13:00 +19°C° 0 mm 2 mps 739 mmHg 59%
    14:00 +20°C° 0 mm 2 mps 739 mmHg 57%
    15:00 +20°C° 0 mm 2 mps 738 mmHg 55%
    16:00 +20°C° 0 mm 2 mps 738 mmHg 57%
    17:00 +20°C° 0 mm 3 mps 737 mmHg 60%
    18:00 +20°C° 0 mm 3 mps 737 mmHg 62%
    19:00 +18°C° 0 mm 2 mps 737 mmHg 67%
    20:00 +17°C° 0 mm 2 mps 737 mmHg 72%
    21:00 +16°C° 0 mm 2 mps 737 mmHg 78%
    22:00 +14°C° 0.1 mm 3 mps 736 mmHg 80%
    23:00 +14°C° 0.1 mm 4 mps 735 mmHg 82%

    24 May, Friday

    Time Temperature Precipitation Wind Pressure Humidity
    00:00 +14°C° 0.1 mm 5 mps 735 mmHg 84%
    01:00 +14°C° 3.2 mm 6 mps 733 mmHg 87%
    02:00 +12°C° 3.2 mm 7 mps 732 mmHg 89%
    03:00 +12°C° 3.2 mm 7 mps 730 mmHg 92%
    04:00 +12°C° 0.8 mm 7 mps 729 mmHg 92%
    05:00 +14°C° 0.8 mm 7 mps 727 mmHg 92%
    06:00 +14°C° 0.8 mm 7 mps 726 mmHg 93%
    07:00 +16°C° 0.8 mm 8 mps 725 mmHg 87%
    08:00 +17°C° 0.8 mm 8 mps 724 mmHg 81%
    09:00 +19°C° 0.8 mm 9 mps 723 mmHg 75%
    10:00 +21°C° 0 mm 10 mps 723 mmHg 69%
    11:00 +21°C° 0 mm 11 mps 723 mmHg 62%
    12:00 +22°C° 0 mm 12 mps 723 mmHg 55%
    13:00 +21°C° 0 mm 12 mps 723 mmHg 57%
    14:00 +19°C° 0 mm 12 mps 724 mmHg 59%
    15:00 +18°C° 0 mm 12 mps 724 mmHg 62%
    16:00 +17°C° 0 mm 11 mps 725 mmHg 65%
    17:00 +15°C° 0 mm 9 mps 726 mmHg 68%
    18:00 +13°C° 0 mm 8 mps 726 mmHg 71%
    19:00 +14°C° 0 mm 7 mps 727 mmHg 73%
    20:00 +12°C° 0 mm 7 mps 727 mmHg 75%
    21:00 +13°C° 0 mm 6 mps 728 mmHg 77%
    22:00 +11°C° 0 mm 6 mps 728 mmHg 78%
    23:00 +12°C° 0 mm 5 mps 728 mmHg 80%

    25 May, Saturday

    Time Temperature Precipitation Wind Pressure Humidity
    00:00 +10°C° 0 mm 5 mps 729 mmHg 81%
    01:00 +10°C° 0 mm 5 mps 729 mmHg 82%
    02:00 +11°C° 0 mm 4 mps 729 mmHg 84%
    03:00 +10°C° 0 mm 4 mps 730 mmHg 85%
    04:00 +10°C° 0 mm 4 mps 730 mmHg 85%
    05:00 +10°C° 0 mm 4 mps 731 mmHg 86%
    06:00 +10°C° 0 mm 3 mps 731 mmHg 86%
    07:00 +11°C° 0 mm 3 mps 731 mmHg 82%
    08:00 +12°C° 0 mm 3 mps 732 mmHg 77%
    09:00 +13°C° 0 mm 4 mps 732 mmHg 73%
    10:00 +14°C° 0 mm 3 mps 733 mmHg 73%
    11:00 +14°C° 0 mm 3 mps 733 mmHg 72%
    12:00 +14°C° 0 mm 3 mps 733 mmHg 72%
    13:00 +16°C° 0 mm 3 mps 733 mmHg 70%
    14:00 +17°C° 0 mm 3 mps 733 mmHg 68%
    15:00 +17°C° 0 mm 3 mps 733 mmHg 66%
    16:00 +17°C° 0 mm 3 mps 734 mmHg 67%
    17:00 +17°C° 0 mm 3 mps 734 mmHg 69%
    18:00 +16°C° 0 mm 3 mps 734 mmHg 70%
    19:00 +15°C° 0 mm 2 mps 734 mmHg 76%
    20:00 +14°C° 0 mm 2 mps 734 mmHg 82%
    21:00 +12°C° 0 mm 2 mps 735 mmHg 88%
    22:00 +12°C° 0 mm 2 mps 735 mmHg 90%
    23:00 +10°C° 0 mm 2 mps 735 mmHg 91%

    26 May, Sunday

    Time Temperature Precipitation Wind Pressure Humidity
    00:00 +10°C° 0 mm 2 mps 735 mmHg 93%
    01:00 +9°C° 0 mm 2 mps 736 mmHg 93%
    02:00 +9°C° 0 mm 2 mps 736 mmHg 94%
    03:00 +9°C° 0 mm 2 mps 736 mmHg 94%
    04:00 +9°C° 0 mm 2 mps 736 mmHg 93%
    05:00 +9°C° 0 mm 2 mps 736 mmHg 92%
    06:00 +10°C° 0 mm 2 mps 736 mmHg 91%
    07:00 +13°C° 0 mm 2 mps 736 mmHg 84%
    08:00 +15°C° 0 mm 2 mps 736 mmHg 77%
    09:00 +17°C° 0 mm 3 mps 736 mmHg 69%
    10:00 +19°C° 0 mm 3 mps 735 mmHg 65%
    11:00 +20°C° 0 mm 4 mps 735 mmHg 61%
    12:00 +22°C° 0 mm 5 mps 735 mmHg 58%
    13:00 +23°C° 0 mm 5 mps 734 mmHg 57%
    14:00 +25°C° 0 mm 5 mps 734 mmHg 57%
    15:00 +25°C° 0 mm 5 mps 734 mmHg 56%
    16:00 +25°C° 0 mm 5 mps 733 mmHg 59%
    17:00 +25°C° 0 mm 4 mps 733 mmHg 63%
    18:00 +23°C° 0 mm 4 mps 732 mmHg 66%
    19:00 +22°C° 0 mm 4 mps 732 mmHg 71%
    20:00 +20°C° 0 mm 4 mps 732 mmHg 76%
    21:00 +19°C° 0 mm 4 mps 732 mmHg 81%
    22:00 +19°C° 0.4 mm 4 mps 732 mmHg 82%
    23:00 +18°C° 0.4 mm 4 mps 731 mmHg 83%
    Show more